TimePST,TemperatureF,Dew PointF,Humidity,Sea Level PressureIn,VisibilityMPH,Wind Direction,Wind SpeedMPH,Gust SpeedMPH,PrecipitationIn,Events,Conditions,WindDirDegrees,DateUTC
1:00 AM,43.2,35.1,73,29.74,-9999.0,East,16.1,-,N/A,,Unknown,90,2013-02-19 09:00:00
4:00 AM,42,37,76,29.76,,SSW,3.5,,,,,210,2013-02-19 12:00:00
4:00 AM,42.1,37.0,82,29.76,-9999.0,SSW,3.5,-,N/A,,Unknown,210,2013-02-19 12:00:00
5:00 AM,42.1,36.9,82,29.78,-9999.0,SE,3.5,-,N/A,,Unknown,140,2013-02-19 13:00:00
6:00 AM,41.2,37.6,87,29.80,-9999.0,West,6.9,-,N/A,,Unknown,280,2013-02-19 14:00:00
7:00 AM,41.2,38.3,89,29.82,-9999.0,NW,17.3,-,N/A,,Unknown,310,2013-02-19 15:00:00
8:00 AM,40.1,37.4,90,29.83,-9999.0,NW,19.6,-,N/A,,Unknown,310,2013-02-19 16:00:00
9:00 AM,40.5,37.8,90,29.84,-9999.0,NW,18.4,-,N/A,,Unknown,310,2013-02-19 17:00:00
10:00 AM,40.6,37.4,88,29.84,-9999.0,WNW,17.3,-,N/A,,Unknown,300,2013-02-19 18:00:00
11:00 AM,41.4,37.4,86,29.86,-9999.0,NW,18.4,-,N/A,,Unknown,310,2013-02-19 19:00:00
12:00 PM,42.1,36.9,82,29.86,-9999.0,WNW,19.6,-,N/A,,Unknown,300,2013-02-19 20:00:00
1:00 PM,42.4,37.4,82,29.88,-9999.0,NW,19.6,-,N/A,,Unknown,310,2013-02-19 21:00:00
2:00 PM,42.8,37.0,80,29.87,-9999.0,NW,19.6,-,N/A,,Unknown,320,2013-02-19 22:00:00
3:00 PM,43.7,37.6,79,29.87,-9999.0,NW,16.1,-,N/A,,Unknown,310,2013-02-19 23:00:00
5:00 PM,44.2,38.3,80,29.88,-9999.0,NW,13.8,-,N/A,,Unknown,310,2013-02-20 01:00:00
6:00 PM,44.2,38.7,81,29.88,-9999.0,NW,13.8,-,N/A,,Unknown,310,2013-02-20 02:00:00
7:00 PM,44.4,37.9,78,29.90,-9999.0,WNW,15.0,-,N/A,,Unknown,300,2013-02-20 03:00:00
8:00 PM,43.9,37.9,80,29.92,-9999.0,WNW,10.4,-,N/A,,Unknown,300,2013-02-20 04:00:00
9:00 PM,43.0,36.0,76,29.94,-9999.0,West,8.1,-,N/A,,Unknown,280,2013-02-20 05:00:00
10:00 PM,42,35,68,29.95,,West,8.1,,,,,270,2013-02-20 06:00:00
10:00 PM,42.3,35.1,76,29.95,-9999.0,West,8.1,-,N/A,,Unknown,270,2013-02-20 06:00:00
11:00 PM,41.5,34.7,77,29.96,-9999.0,West,4.6,-,N/A,,Unknown,270,2013-02-20 07:00:00